Regional Weather Roundup
Issued by NWS

Home | Current Version | Previous Version | Graphics & Text | Print | Product List | Glossary On
Versions: 1 2 3 4 5 6 7 8 9 10 11 12 13 14 15 16 17 18 19 20 21 22 23 24 25 26 27 28 29 30 31 32 33 34 35 36 37 38 39 40 41 42 43 44 45 46 47 48 49 50
000
ASUS43 KOAX 170502
RWRNE

WEATHER ROUNDUP FOR NEBRASKA
NATIONAL WEATHER SERVICE OMAHA NE
1200 AM CDT WED SEP 17 2014

NOTES: SATELLITE DATA IS BEING USED TO AUGMENT CLOUD COVER ABOVE
       12000 FEET.
       "FAIR" INDICATES FEW OR NO CLOUDS BELOW 12,000 FEET WITH NO
       SIGNIFICANT WEATHER AND/OR OBSTRUCTIONS TO VISIBILITY.

  * THESE STATIONS DO NOT REPORT WEATHER SUCH AS RAIN...SNOW OR FOG.

NEZ001>004-019>022-054>056-170600-
NEBRASKA PANHANDLE

CITY           SKY/WX    TMP DP  RH WIND       PRES   REMARKS
SCOTTSBLUFF    CLEAR     58  49  72 E8        30.02R
ALLIANCE       CLEAR     55  45  68 S6        30.00S
CHADRON        CLEAR     56  50  80 CALM      29.97S
KIMBALL        CLEAR     56  44  62 SW7       30.07S
SIDNEY         CLEAR     58  48  69 SW7       30.05S
$$

NEZ057>060-069>072-079>082-170600-
SOUTHWEST NEBRASKA

CITY           SKY/WX    TMP DP  RH WIND       PRES   REMARKS
NORTH PLATTE   CLEAR     54  53  97 E7        29.97F FOG
IMPERIAL       CLEAR     58  55  90 E3        29.99S
LEXINGTON      CLEAR     57  55  92 CALM      29.98F
MCCOOK         CLEAR     60  58  92 E7        29.97F
OGALLALA       CLEAR     63  58  84 CALM      30.00R
$$

NEZ005>010-023>029-035>040-094-170600-
NORTH CENTRAL NEBRASKA

CITY           SKY/WX    TMP DP  RH WIND       PRES   REMARKS
VALENTINE      CLEAR     52  51  97 NW5       29.95R
AINSWORTH      CLEAR     56  55  97 S7        29.95S
BROKEN BOW     CLEAR     52  50  93 CALM      29.97F
O`NEILL        CLEAR     56  55  94 S7        29.95F
ORD            CLEAR     52  50  93 CALM      29.96F
THEDFORD       CLEAR     61  57  87 SW3       29.98R
$$

NEZ041-046>049-061>064-073>077-083>087-170600-
SOUTH CENTRAL NEBRASKA

CITY           SKY/WX    TMP DP  RH WIND       PRES   REMARKS
GRAND ISLAND   CLEAR     57  50  77 S6        29.99F
AURORA         CLEAR     57  51  80 S5        29.99S
HASTINGS       CLEAR     60  48  64 S10       29.99F
HEBRON         PTCLDY    57  52  84 CALM      29.99F
HOLDREGE       CLEAR     54  51  89 CALM      29.99F
KEARNEY *      CLEAR     54  50  87 SE6       30.00F
YORK           PTCLDY    57  52  82 S7        29.99F
$$

NEZ011>018-030>034-042>045-170600-
NORTHEAST NEBRASKA

CITY           SKY/WX    TMP DP  RH WIND       PRES   REMARKS
NORFOLK        CLEAR     57  51  80 SE8       29.97F
ALBION         CLEAR     54  49  84 SE3       29.97F
BLAIR          CLOUDY    62  51  67 S7        30.00S
COLUMBUS *     PTCLDY    59  52  77 SE3       29.98F
FREMONT        CLOUDY    63  51  64 SE6       29.99F
TEKAMAH        CLOUDY    60  53  77 SE5       29.99F
WAYNE          CLEAR     55  51  86 S7        29.97F
$$

NEZ050>053-065>068-078-088>093-170600-
SOUTHEAST NEBRASKA

CITY           SKY/WX    TMP DP  RH WIND       PRES   REMARKS
LINCOLN        CLOUDY    63  53  70 S6        30.00F
OMAHA EPPLEY   CLOUDY    64  50  60 S9        30.00F
BEATRICE       CLOUDY    63  54  72 CALM      30.00F
FALLS CITY     CLOUDY    62  55  77 SE5       30.01F
NEBRASKA CITY  CLOUDY    61  49  63 S6        30.01F
PLATTSMOUTH    CLOUDY    61  51  68 SE6       30.01S
$$

NEZ044-045-051>053-067-170600-
OMAHA AREA

CITY           SKY/WX    TMP DP  RH WIND       PRES   REMARKS
OMAHA EPPLEY   CLOUDY    64  50  60 S9        30.00F
BLAIR          CLOUDY    62  51  67 S7        30.00S
FREMONT        CLOUDY    63  51  64 SE6       29.99F
MILLARD        CLOUDY    63  53  69 SE5       30.00F
PLATTSMOUTH    CLOUDY    61  51  68 SE6       30.01S
WAHOO          CLOUDY    60  53  77 SE3       29.99F
$$


USA.gov is the U.S. government's official web portal to all federal, state and local government web resources and services.